ANA1861 RJOA-ROAH

Flight info

Callsign ANA1861
Flight time 1h 42m
Altitude 34000
Route MARCO2 MARCO Y45 ONC Y525 IHEYA IHEYAS
Aircraft A321/M-VGDW/C

Departure

Time 2026-05-05 03:27
Airport Hiroshima Airport (RJOA)

Arrival

Time 2026-05-05 05:09
Airport Naha International Airport (ROAH)
Time Latitude Longitude Altitude Speed Heading
2026-05-05 03:24 34.43706 132.93559 1072 ft 0 kts 174°
2026-05-05 03:25 34.43694 132.93561 1073 ft 5 kts 175°
2026-05-05 03:25 34.43643 132.93557 1075 ft 8 kts 195°
2026-05-05 03:25 34.43608 132.93513 1077 ft 6 kts 254°
2026-05-05 03:25 34.43608 132.93483 1077 ft 1 kts 271°
2026-05-05 03:26 34.43608 132.93482 1077 ft 1 kts 271°
2026-05-05 03:26 34.43608 132.93321 1080 ft 51 kts 269°
2026-05-05 03:26 34.43607 132.92605 1091 ft 116 kts 270°
2026-05-05 03:26 34.43606 132.91415 1092 ft 165 kts 270°
2026-05-05 03:27 34.43612 132.89936 1500 ft 173 kts 270°
2026-05-05 03:27 34.43527 132.88494 2268 ft 171 kts 256°
2026-05-05 03:27 34.43299 132.87055 2932 ft 178 kts 259°
2026-05-05 03:27 34.43114 132.85510 3189 ft 194 kts 261°
2026-05-05 03:28 34.42940 132.83841 3353 ft 212 kts 262°
2026-05-05 03:28 34.42748 132.81985 3467 ft 231 kts 260°
2026-05-05 03:28 34.42181 132.80087 3635 ft 252 kts 239°
2026-05-05 03:28 34.41194 132.78251 4234 ft 263 kts 232°
2026-05-05 03:29 34.40084 132.76461 4955 ft 267 kts 231°
2026-05-05 03:29 34.38948 132.74669 5743 ft 270 kts 231°
2026-05-05 03:29 34.37815 132.72846 6557 ft 272 kts 232°
2026-05-05 03:29 34.36694 132.70993 7246 ft 274 kts 233°
2026-05-05 03:30 34.35573 132.69100 7890 ft 278 kts 233°
2026-05-05 03:30 34.34450 132.67172 8533 ft 282 kts 234°
2026-05-05 03:30 34.33321 132.65214 9177 ft 286 kts 234°
2026-05-05 03:30 34.32178 132.63218 9844 ft 290 kts 234°
2026-05-05 03:31 34.31014 132.61188 10289 ft 302 kts 234°
2026-05-05 03:31 34.29769 132.59029 10420 ft 324 kts 234°
2026-05-05 03:31 34.28442 132.56726 10545 ft 344 kts 234°
2026-05-05 03:31 34.27037 132.54289 10710 ft 361 kts 234°
2026-05-05 03:32 34.25586 132.51774 11212 ft 367 kts 234°
2026-05-05 03:32 34.24122 132.49237 11820 ft 369 kts 234°
2026-05-05 03:32 34.22651 132.46672 12440 ft 372 kts 236°
2026-05-05 03:32 34.21359 132.43950 13047 ft 375 kts 240°
2026-05-05 03:33 34.20095 132.41185 13696 ft 377 kts 239°
2026-05-05 03:33 34.18820 132.38403 14279 ft 379 kts 239°
2026-05-05 03:33 34.17543 132.35613 14818 ft 380 kts 240°
2026-05-05 03:33 34.16260 132.32812 15361 ft 382 kts 240°
2026-05-05 03:34 34.14988 132.30040 15881 ft 383 kts 240°
2026-05-05 03:34 34.13695 132.27222 16402 ft 385 kts 240°
2026-05-05 03:34 34.12394 132.24386 16916 ft 386 kts 241°
2026-05-05 03:34 34.11088 132.21545 17434 ft 388 kts 241°
2026-05-05 03:35 34.09747 132.18716 17942 ft 390 kts 237°
2026-05-05 03:35 34.08058 132.16152 18443 ft 392 kts 226°
2026-05-05 03:35 34.05956 132.14013 18884 ft 396 kts 216°
2026-05-05 03:35 34.03529 132.12407 19321 ft 399 kts 205°
2026-05-05 03:36 34.00967 132.11077 19777 ft 401 kts 206°
2026-05-05 03:36 33.98403 132.09747 20210 ft 402 kts 206°
2026-05-05 03:36 33.95828 132.08412 20630 ft 403 kts 206°
2026-05-05 03:36 33.93244 132.07073 21048 ft 405 kts 206°
2026-05-05 03:37 33.90654 132.05730 21468 ft 406 kts 206°
2026-05-05 03:37 33.88086 132.04398 21877 ft 408 kts 207°
2026-05-05 03:37 33.85470 132.03041 22289 ft 409 kts 207°
2026-05-05 03:37 33.82852 132.01685 22689 ft 411 kts 207°
2026-05-05 03:38 33.80214 132.00320 23084 ft 413 kts 207°
2026-05-05 03:38 33.77574 131.98954 23486 ft 414 kts 207°
2026-05-05 03:38 33.74924 131.97582 23845 ft 416 kts 207°
2026-05-05 03:38 33.72264 131.96203 24178 ft 417 kts 207°
2026-05-05 03:39 33.69601 131.94821 24525 ft 417 kts 208°
2026-05-05 03:39 33.66939 131.93442 24888 ft 417 kts 208°
2026-05-05 03:39 33.64280 131.92067 25241 ft 416 kts 208°
2026-05-05 03:39 33.61623 131.90689 25604 ft 416 kts 208°
2026-05-05 03:40 33.58962 131.89311 25949 ft 416 kts 208°
2026-05-05 03:40 33.56308 131.87938 26288 ft 416 kts 209°
2026-05-05 03:40 33.53653 131.86566 26627 ft 415 kts 209°
2026-05-05 03:40 33.50997 131.85198 26967 ft 415 kts 209°
2026-05-05 03:41 33.48340 131.83831 27293 ft 415 kts 209°
2026-05-05 03:41 33.45681 131.82465 27628 ft 415 kts 210°
2026-05-05 03:41 33.43028 131.81099 27960 ft 415 kts 210°
2026-05-05 03:41 33.40378 131.79735 28269 ft 415 kts 210°
2026-05-05 03:42 33.37737 131.78378 28688 ft 411 kts 210°
2026-05-05 03:42 33.35118 131.77035 29148 ft 407 kts 210°
2026-05-05 03:42 33.32527 131.75711 29616 ft 403 kts 211°
2026-05-05 03:42 33.29961 131.74399 30071 ft 399 kts 211°
2026-05-05 03:43 33.27421 131.73102 30460 ft 396 kts 211°
2026-05-05 03:43 33.24900 131.71814 30786 ft 393 kts 211°
2026-05-05 03:43 33.22402 131.70511 31107 ft 388 kts 214°
2026-05-05 03:43 33.20098 131.68908 31421 ft 381 kts 219°
2026-05-05 03:44 33.17861 131.67229 31734 ft 379 kts 219°
2026-05-05 03:44 33.15632 131.65565 32048 ft 377 kts 219°
2026-05-05 03:44 33.13409 131.63915 32353 ft 375 kts 219°
2026-05-05 03:44 33.11193 131.62276 32638 ft 374 kts 219°
2026-05-05 03:45 33.08990 131.60646 32849 ft 372 kts 219°
2026-05-05 03:45 33.06822 131.59038 33071 ft 372 kts 219°
2026-05-05 03:45 33.04631 131.57412 33350 ft 370 kts 219°
2026-05-05 03:45 33.02451 131.55792 33631 ft 369 kts 219°
2026-05-05 03:46 33.00276 131.54180 33914 ft 368 kts 219°
2026-05-05 03:46 32.98103 131.52573 34129 ft 367 kts 220°
2026-05-05 03:46 32.93802 131.49392 34175 ft 363 kts 220°
2026-05-05 03:47 32.89517 131.46232 34176 ft 362 kts 220°
2026-05-05 03:47 32.85234 131.43080 34168 ft 362 kts 219°
2026-05-05 03:48 32.80948 131.39917 34171 ft 362 kts 220°
2026-05-05 03:48 32.76688 131.36736 34152 ft 361 kts 220°
2026-05-05 03:49 32.72434 131.33543 34156 ft 362 kts 220°
2026-05-05 03:49 32.71717 131.33006 34152 ft 362 kts 220°
2026-05-05 03:50 32.68961 131.30960 34130 ft 359 kts 219°
2026-05-05 03:50 32.65442 131.28329 34129 ft 360 kts 220°
2026-05-05 03:51 32.61205 131.25151 34137 ft 360 kts 220°
2026-05-05 03:51 32.56933 131.21956 34138 ft 362 kts 219°
2026-05-05 03:52 32.52639 131.18762 34166 ft 366 kts 220°
2026-05-05 03:52 32.48335 131.15568 34161 ft 365 kts 220°
2026-05-05 03:53 32.44042 131.12383 34157 ft 364 kts 220°
2026-05-05 03:53 32.39730 131.09196 34162 ft 365 kts 219°
2026-05-05 03:54 32.35391 131.06043 34173 ft 367 kts 219°
2026-05-05 03:54 32.31033 131.02909 34169 ft 366 kts 219°
2026-05-05 03:55 32.26683 130.99777 34173 ft 366 kts 219°
2026-05-05 03:55 32.22340 130.96639 34164 ft 366 kts 219°
2026-05-05 03:56 32.18005 130.93506 34166 ft 365 kts 219°
2026-05-05 03:56 32.13674 130.90377 34158 ft 366 kts 219°
2026-05-05 03:57 32.09368 130.87248 34167 ft 366 kts 219°
2026-05-05 03:57 32.05051 130.84077 34170 ft 366 kts 220°
2026-05-05 03:58 32.00737 130.80906 34174 ft 365 kts 220°
2026-05-05 03:58 31.96415 130.77743 34177 ft 365 kts 219°
2026-05-05 03:59 31.92104 130.74599 34179 ft 365 kts 219°
2026-05-05 03:59 31.87792 130.71452 34175 ft 364 kts 219°
2026-05-05 04:00 31.83492 130.68311 34177 ft 364 kts 219°
2026-05-05 04:00 31.79192 130.65172 34181 ft 364 kts 219°
2026-05-05 04:01 31.74881 130.62037 34190 ft 364 kts 219°
2026-05-05 04:01 31.70606 130.58941 34184 ft 364 kts 218°
2026-05-05 04:02 31.65879 130.56538 34187 ft 373 kts 211°
2026-05-05 04:02 31.61041 130.54355 34191 ft 372 kts 211°
2026-05-05 04:03 31.56197 130.52181 34189 ft 372 kts 210°
2026-05-05 04:03 31.51350 130.50055 34193 ft 372 kts 210°
2026-05-05 04:04 31.46505 130.47934 34200 ft 372 kts 210°
2026-05-05 04:04 31.41664 130.45812 34184 ft 371 kts 210°
2026-05-05 04:05 31.36827 130.43690 34179 ft 371 kts 210°
2026-05-05 04:05 31.31997 130.41571 34180 ft 371 kts 210°
2026-05-05 04:06 31.27158 130.39454 34170 ft 371 kts 210°
2026-05-05 04:06 31.22360 130.37251 34164 ft 370 kts 211°
2026-05-05 04:07 31.17599 130.34966 34152 ft 370 kts 211°
2026-05-05 04:07 31.12822 130.32693 34150 ft 371 kts 211°
2026-05-05 04:08 31.08025 130.30443 34151 ft 372 kts 211°
2026-05-05 04:08 31.03216 130.28201 34151 ft 372 kts 210°
2026-05-05 04:09 30.98406 130.25963 34149 ft 373 kts 210°
2026-05-05 04:09 30.93589 130.23717 34152 ft 373 kts 210°
2026-05-05 04:10 30.88763 130.21472 34147 ft 374 kts 210°
2026-05-05 04:10 30.83929 130.19219 34146 ft 375 kts 210°
2026-05-05 04:11 30.79086 130.16966 34143 ft 375 kts 210°
2026-05-05 04:11 30.74257 130.14727 34143 ft 376 kts 210°
2026-05-05 04:12 30.69390 130.12470 34145 ft 377 kts 210°
2026-05-05 04:12 30.64516 130.10206 34152 ft 377 kts 210°
2026-05-05 04:13 30.59629 130.07952 34154 ft 378 kts 210°
2026-05-05 04:13 30.54734 130.05707 34156 ft 379 kts 209°
2026-05-05 04:14 30.49821 130.03495 34151 ft 379 kts 209°
2026-05-05 04:14 30.44897 130.01285 34151 ft 380 kts 209°
2026-05-05 04:15 30.39967 129.99074 34150 ft 380 kts 209°
2026-05-05 04:15 30.35029 129.96857 34146 ft 381 kts 208°
2026-05-05 04:16 30.30089 129.94718 34144 ft 382 kts 207°
2026-05-05 04:16 30.25034 129.92639 34154 ft 383 kts 207°
2026-05-05 04:17 30.20000 129.90581 34148 ft 384 kts 207°
2026-05-05 04:17 30.14970 129.88506 34147 ft 384 kts 207°
2026-05-05 04:18 30.09963 129.86421 34143 ft 385 kts 207°
2026-05-05 04:18 30.04921 129.84326 34142 ft 386 kts 207°
2026-05-05 04:19 29.99863 129.82235 34136 ft 386 kts 207°
2026-05-05 04:19 29.94858 129.79991 34136 ft 386 kts 209°
2026-05-05 04:20 29.89883 129.77638 34128 ft 387 kts 210°
2026-05-05 04:20 29.84885 129.75296 34133 ft 388 kts 209°
2026-05-05 04:21 29.79867 129.72979 34134 ft 389 kts 209°
2026-05-05 04:21 29.74820 129.70671 34136 ft 390 kts 209°
2026-05-05 04:22 29.69771 129.68359 34134 ft 391 kts 209°
2026-05-05 04:22 29.64708 129.66032 34139 ft 392 kts 209°
2026-05-05 04:23 29.59631 129.63710 34134 ft 393 kts 209°
2026-05-05 04:23 29.54544 129.61388 34132 ft 394 kts 209°
2026-05-05 04:24 29.49442 129.59055 34130 ft 395 kts 209°
2026-05-05 04:25 29.41776 129.55548 34130 ft 396 kts 209°
2026-05-05 04:25 29.36652 129.53213 34136 ft 396 kts 209°
2026-05-05 04:26 29.31508 129.50904 34143 ft 398 kts 208°
2026-05-05 04:26 29.26282 129.48770 34146 ft 399 kts 207°
2026-05-05 04:27 29.21058 129.46701 34139 ft 399 kts 207°
2026-05-05 04:27 29.15816 129.44595 34142 ft 399 kts 207°
2026-05-05 04:28 29.10594 129.42465 34150 ft 398 kts 208°
2026-05-05 04:28 29.05385 129.40338 34152 ft 397 kts 208°
2026-05-05 04:29 29.00176 129.38226 34151 ft 397 kts 208°
2026-05-05 04:29 28.95002 129.36068 34154 ft 395 kts 209°
2026-05-05 04:30 28.89892 129.33802 34149 ft 393 kts 209°
2026-05-05 04:30 28.84800 129.31524 34152 ft 393 kts 209°
2026-05-05 04:31 28.79700 129.29274 34151 ft 392 kts 209°
2026-05-05 04:31 28.74601 129.27052 34149 ft 392 kts 209°
2026-05-05 04:32 28.69505 129.24827 34140 ft 392 kts 209°
2026-05-05 04:32 28.64417 129.22595 34141 ft 392 kts 209°
2026-05-05 04:33 28.59333 129.20371 34129 ft 392 kts 208°
2026-05-05 04:33 28.54235 129.18152 34134 ft 392 kts 208°
2026-05-05 04:34 28.49143 129.15933 34134 ft 392 kts 208°
2026-05-05 04:34 28.44078 129.13728 34123 ft 393 kts 208°
2026-05-05 04:35 28.38973 129.11508 34120 ft 393 kts 208°
2026-05-05 04:35 28.33851 129.09286 34119 ft 395 kts 208°
2026-05-05 04:36 28.28711 129.07064 34111 ft 396 kts 208°
2026-05-05 04:36 28.23557 129.04839 34109 ft 397 kts 208°
2026-05-05 04:37 28.19265 129.02987 34108 ft 398 kts 207°
2026-05-05 04:37 28.14084 129.00745 34109 ft 398 kts 208°
2026-05-05 04:38 28.08942 128.98403 34108 ft 398 kts 209°
2026-05-05 04:38 28.03815 128.96017 34112 ft 399 kts 209°
2026-05-05 04:39 27.98666 128.93655 34114 ft 400 kts 208°
2026-05-05 04:39 27.93501 128.91305 34115 ft 401 kts 208°
2026-05-05 04:40 27.88320 128.88955 34118 ft 402 kts 208°
2026-05-05 04:40 27.83084 128.86711 34116 ft 403 kts 207°
2026-05-05 04:41 27.77815 128.84511 34113 ft 404 kts 207°
2026-05-05 04:41 27.72551 128.82296 34108 ft 404 kts 207°
2026-05-05 04:42 27.67286 128.80058 34106 ft 404 kts 208°
2026-05-05 04:42 27.62051 128.77836 34102 ft 405 kts 207°
2026-05-05 04:43 27.56766 128.75598 34096 ft 405 kts 208°
2026-05-05 04:43 27.51482 128.73359 34092 ft 406 kts 208°
2026-05-05 04:44 27.46268 128.70973 34096 ft 399 kts 216°
2026-05-05 04:44 27.42059 128.67105 34090 ft 387 kts 234°
2026-05-05 04:45 27.39175 128.62041 34090 ft 384 kts 241°
2026-05-05 04:45 27.36454 128.56863 34085 ft 385 kts 240°
2026-05-05 04:46 27.33728 128.51701 34096 ft 386 kts 240°
2026-05-05 04:46 27.30984 128.46510 34096 ft 386 kts 240°
2026-05-05 04:47 27.28240 128.41317 34103 ft 387 kts 240°
2026-05-05 04:47 27.25492 128.36116 34108 ft 387 kts 240°
2026-05-05 04:48 27.22744 128.30922 34110 ft 387 kts 240°
2026-05-05 04:48 27.19993 128.25725 34110 ft 387 kts 240°
2026-05-05 04:49 27.17240 128.20530 34115 ft 387 kts 240°
2026-05-05 04:49 27.15864 128.17941 33915 ft 383 kts 240°
2026-05-05 04:49 27.14492 128.15368 33197 ft 384 kts 240°
2026-05-05 04:49 27.13147 128.12850 32993 ft 374 kts 240°
2026-05-05 04:50 27.11833 128.10386 32801 ft 363 kts 240°
2026-05-05 04:50 27.10549 128.07975 32424 ft 357 kts 240°
2026-05-05 04:50 27.09282 128.05597 31911 ft 353 kts 240°
2026-05-05 04:50 27.08028 128.03243 31223 ft 350 kts 240°
2026-05-05 04:51 27.06788 128.00912 30543 ft 347 kts 240°
2026-05-05 04:51 27.05551 127.98594 29805 ft 345 kts 239°
2026-05-05 04:51 27.04326 127.96298 29068 ft 342 kts 240°
2026-05-05 04:51 27.02947 127.94143 28378 ft 339 kts 229°
2026-05-05 04:52 27.01178 127.92414 27715 ft 339 kts 218°
2026-05-05 04:52 26.99079 127.91184 27048 ft 343 kts 206°
2026-05-05 04:52 26.96753 127.90532 26399 ft 349 kts 193°
2026-05-05 04:52 26.94303 127.90475 25765 ft 353 kts 186°
2026-05-05 04:53 26.91856 127.90558 25137 ft 351 kts 187°
2026-05-05 04:53 26.89427 127.90633 24542 ft 348 kts 187°
2026-05-05 04:53 26.87016 127.90702 23969 ft 345 kts 187°
2026-05-05 04:53 26.84630 127.90769 23331 ft 342 kts 187°
2026-05-05 04:54 26.82258 127.90838 22671 ft 339 kts 187°
2026-05-05 04:54 26.79916 127.90908 22040 ft 335 kts 187°
2026-05-05 04:54 26.77591 127.90977 21426 ft 332 kts 187°
2026-05-05 04:54 26.75296 127.91045 20818 ft 329 kts 186°
2026-05-05 04:55 26.73019 127.91113 20219 ft 326 kts 186°
2026-05-05 04:55 26.70794 127.91180 19653 ft 323 kts 186°
2026-05-05 04:55 26.68549 127.91244 19179 ft 322 kts 186°
2026-05-05 04:55 26.66325 127.91309 18889 ft 318 kts 186°
2026-05-05 04:56 26.64119 127.91374 18475 ft 316 kts 186°
2026-05-05 04:56 26.61933 127.91438 17878 ft 314 kts 186°
2026-05-05 04:56 26.59770 127.91506 17440 ft 306 kts 186°
2026-05-05 04:56 26.57653 127.91573 17047 ft 304 kts 186°
2026-05-05 04:57 26.55544 127.91636 16651 ft 302 kts 186°
2026-05-05 04:57 26.53446 127.91693 16256 ft 301 kts 186°
2026-05-05 04:57 26.51355 127.91750 15854 ft 301 kts 186°
2026-05-05 04:57 26.49265 127.91809 15452 ft 300 kts 185°
2026-05-05 04:58 26.47177 127.91869 15036 ft 300 kts 185°
2026-05-05 04:58 26.45086 127.91930 14623 ft 301 kts 185°
2026-05-05 04:58 26.43011 127.91991 14330 ft 296 kts 185°
2026-05-05 04:58 26.40955 127.92049 13787 ft 294 kts 186°
2026-05-05 04:59 26.38968 127.91780 13266 ft 283 kts 200°
2026-05-05 04:59 26.37148 127.91016 12855 ft 278 kts 208°
2026-05-05 04:59 26.35395 127.90112 12460 ft 277 kts 208°
2026-05-05 04:59 26.33645 127.89217 12058 ft 276 kts 208°
2026-05-05 05:00 26.31904 127.88328 11660 ft 275 kts 208°
2026-05-05 05:00 26.30165 127.87443 11258 ft 274 kts 208°
2026-05-05 05:00 26.28427 127.86559 10858 ft 275 kts 208°
2026-05-05 05:00 26.26691 127.85675 10450 ft 275 kts 208°
2026-05-05 05:01 26.24962 127.84793 10065 ft 271 kts 208°
2026-05-05 05:01 26.23266 127.83928 9606 ft 265 kts 208°
2026-05-05 05:01 26.21609 127.83083 9203 ft 261 kts 208°
2026-05-05 05:01 26.19958 127.82242 8794 ft 261 kts 207°
2026-05-05 05:02 26.18312 127.81405 8380 ft 259 kts 207°
2026-05-05 05:02 26.16675 127.80570 7972 ft 258 kts 208°
2026-05-05 05:02 26.15047 127.79739 7567 ft 257 kts 207°
2026-05-05 05:02 26.13444 127.78922 7164 ft 250 kts 207°
2026-05-05 05:03 26.11882 127.78128 6734 ft 244 kts 206°
2026-05-05 05:03 26.10351 127.77351 6325 ft 239 kts 206°
2026-05-05 05:03 26.08849 127.76589 5922 ft 234 kts 207°
2026-05-05 05:03 26.07362 127.75830 5535 ft 236 kts 208°
2026-05-05 05:04 26.06042 127.74757 5152 ft 237 kts 229°
2026-05-05 05:04 26.05204 127.73168 4751 ft 244 kts 252°
2026-05-05 05:04 26.04971 127.71312 4299 ft 241 kts 269°
2026-05-05 05:04 26.04906 127.69467 3897 ft 237 kts 271°
2026-05-05 05:05 26.04840 127.67651 3522 ft 231 kts 272°
2026-05-05 05:05 26.04846 127.65902 3098 ft 221 kts 287°
2026-05-05 05:05 26.05539 127.64515 2742 ft 196 kts 323°
2026-05-05 05:05 26.06691 127.63900 2428 ft 180 kts 354°
2026-05-05 05:06 26.07908 127.63827 2175 ft 172 kts 359°
2026-05-05 05:06 26.09090 127.63771 1822 ft 169 kts 359°
2026-05-05 05:06 26.10207 127.63716 1551 ft 152 kts 359°
2026-05-05 05:06 26.11227 127.63667 1345 ft 144 kts 359°
2026-05-05 05:07 26.12201 127.63622 1144 ft 142 kts 359°
2026-05-05 05:07 26.13186 127.63575 959 ft 142 kts 359°
2026-05-05 05:07 26.14159 127.63529 770 ft 138 kts
2026-05-05 05:07 26.15111 127.63484 591 ft 139 kts
2026-05-05 05:08 26.16097 127.63435 408 ft 144 kts
2026-05-05 05:08 26.17111 127.63386 225 ft 147 kts
2026-05-05 05:08 26.18124 127.63347 46 ft 144 kts
2026-05-05 05:08 26.19036 127.63312 27 ft 115 kts 358°
2026-05-05 05:09 26.19643 127.63275 30 ft 62 kts 357°
2026-05-05 05:09 26.19917 127.63261 29 ft 27 kts 358°
2026-05-05 05:09 26.20087 127.63254 29 ft 22 kts 357°
2026-05-05 05:09 26.20225 127.63247 28 ft 14 kts 358°
2026-05-05 05:10 26.20286 127.63281 28 ft 10 kts 63°
2026-05-05 05:10 26.20296 127.63368 28 ft 15 kts 87°
2026-05-05 05:10 26.20302 127.63501 28 ft 18 kts 87°
2026-05-05 05:10 26.20308 127.63637 28 ft 17 kts 87°
2026-05-05 05:11 26.20312 127.63770 28 ft 17 kts 88°
2026-05-05 05:11 26.20317 127.63900 28 ft 17 kts 87°
2026-05-05 05:11 26.20324 127.64049 28 ft 22 kts 87°
2026-05-05 05:11 26.20330 127.64216 28 ft 21 kts 87°
2026-05-05 05:12 26.20334 127.64378 28 ft 21 kts 86°
2026-05-05 05:12 26.20342 127.64532 28 ft 20 kts 86°
2026-05-05 05:12 26.20348 127.64670 28 ft 13 kts 88°
2026-05-05 05:12 26.20375 127.64745 28 ft 11 kts 31°
2026-05-05 05:13 26.20461 127.64751 28 ft 16 kts 356°
2026-05-05 05:13 26.20565 127.64748 28 ft 10 kts
2026-05-05 05:13 26.20621 127.64777 28 ft 9 kts 50°
2026-05-05 05:13 26.20634 127.64843 28 ft 9 kts 90°
2026-05-05 05:14 26.20649 127.64886 28 ft 6 kts 32°
2026-05-05 05:14 26.20684 127.64904 28 ft 5 kts 26°
2026-05-05 05:14 26.20705 127.64917 28 ft 0 kts 28°
2026-05-05 05:14 26.20707 127.64918 28 ft 0 kts 28°